Location: ??????
(42.0089°N, 44.3281°E)
Time: 11:39:16
(UTC+00:00)

Cosmos 220 Rocket - Pass Details

Date: 07 June 2022
Orbit: 572 x 614 km, 74.0° (Epoch: 03 July)

Event Time Altitude Azimuth Distance (km) Brightness Sun altitude
Exits shadow 19:27:59 - 238° (WSW) 2,121 6.7 -21.7°
Reaches altitude 10° 19:28:43 10° 244° (WSW) 1,875 6.5 -21.7°
Maximum altitude 19:32:09 24° 299° (WNW) 1,203 6.0 -22.0°
Drops below altitude 10° 19:35:36 10° 354° (N) 1,893 7.6 -22.2°
Sets 19:38:10 0° 9° (N) 2,801 8.4 -22.4°
